Regional Weather Roundup
Issued by NWS

Home | Current Version | Previous Version | Graphics & Text | Print | Product List | Glossary On
Versions: 1 2 3 4 5 6 7 8 9 10 11 12 13 14 15 16 17 18 19 20 21 22 23 24 25 26 27 28 29 30 31 32 33 34 35 36 37 38 39 40 41 42 43 44 45 46 47 48 49 50
000
ASUS43 KBIS 271502
RWRND

NORTH DAKOTA REGIONAL WEATHER ROUNDUP
NATIONAL WEATHER SERVICE BISMARCK ND
1000 AM CDT WED MAY 27 2015

NOTE: "FAIR" INDICATES FEW OR NO CLOUDS BELOW 12,000 FEET WITH NO
SIGNIFICANT WEATHER AND/OR OBSTRUCTIONS TO VISIBILITY.


NDZ001>003-009>011-017-271600-
NORTHWEST NORTH DAKOTA

CITY           SKY/WX    TMP DP  RH WIND       PRES   REMARKS
WILLISTON      SUNNY     70  48  45 VRB5      29.93S
MINOT          SUNNY     68  49  50 NE5       29.95S
MINOT AFB      SUNNY     69  55  62 SE5       29.95S
$$

NDZ018>021-031>035-040>046-271600-
SOUTHWEST NORTH DAKOTA

CITY           SKY/WX    TMP DP  RH WIND       PRES   REMARKS
BISMARCK       SUNNY     70  52  52 CALM      29.97R
DICKINSON      MOSUNNY   67  50  54 S12       29.94S
GARRISON         N/A     71  52  50 E9        29.96R
HETTINGER ARPT SUNNY     67  52  58 S9        29.98S
$$

NDZ004>008-012>016-024-026-027-054-271600-
NORTHEAST NORTH DAKOTA

CITY           SKY/WX    TMP DP  RH WIND       PRES   REMARKS
GRAND FORKS    MOSUNNY   61  47  59 N14       29.94S
GRND FRKS AFB  SUNNY     60  47  62 N13       29.95S
DEVILS LAKE    SUNNY     61  46  59 NE7       29.97R
$$

NDZ022-023-025-028>030-036>039-047>053-271600-
SOUTHEAST NORTH DAKOTA

CITY           SKY/WX    TMP DP  RH WIND       PRES   REMARKS
FARGO          SUNNY     68  54  60 N7        29.93R
JAMESTOWN      SUNNY     71  53  52 NW6       29.95R
$$



USA.gov is the U.S. government's official web portal to all federal, state and local government web resources and services.